Current weather by "City, St" or "zip code"  
 

Current Conditions: Albany International Airport, NY

A Few Clouds


37.0 F

Last Updated on Mar 20 2019, 8:51 am EDT
Humidity: 50%
Wind Speed: S 6.9 mph
Barometer 30.37 in
Dewpoint: 19.9 F
Visibility: 10.00 mi
Precip: --
Heat Index: NA
Wind Chill: 32 F
Current conditions at:

Albany International Airport, NY (KALB)

Lat: 42.74 Lon: 73.799

Local Radar Image active severe weather and emergency alerts image image weather storm and storm spotter reports image weather observation monitoring service image
Local
Radar
Active
Alerts
Storm Reports Obs
Monitoring

iAlert Weather and Emergency Alert Notification Services:


ialert severe weather and emergency alerts by text message and email ialert daily weather forecast by email and text message service ialert real-time weather-observation monitoring and alert notification service ialert storm report monitoring alert notification

Observation History for Albany International Airport, NY


Time Wind
(mph)
Vis
(mi)
Weather Precip (in) Temperature (F) Relative
Humidity
Wind
Chill
(°F)
Heat
Index
(°F)
Pressure
Air Dwpt altimeter
(in)
sea level
(mb)
8:51 am EDT S 6.9 10.00 A Few Clouds -- 37.0 19.9 50% 32 NA 30.37 1028.8
7:51 am EDT N 0.0 10.00 Partly Cloudy -- 33.0 21.0 61% NA NA 30.37 1028.9
6:51 am EDT SE 3.5 10.00 Mostly Cloudy -- 32.0 19.9 61% NA NA 30.37 1028.5
5:51 am EDT S 4.6 10.00 Overcast -- 32.0 19.9 61% 27 NA 30.37 1028.6
4:51 am EDT N 0.0 10.00 Overcast -- 31.0 19.0 61% NA NA 30.37 1028.7
3:51 am EDT S 3.5 10.00 Partly Cloudy -- 28.0 19.9 72% NA NA 30.38 1028.9
2:51 am EDT N 0.0 10.00 Mostly Cloudy -- 30.0 19.9 66% NA NA 30.40 1029.6
1:51 am EDT N 0.0 10.00 Mostly Cloudy -- 29.0 18.0 63% NA NA 30.40 1029.8
12:51 am EDT N 0.0 10.00 Mostly Cloudy -- 31.0 18.0 59% NA NA 30.40 1029.8
11:51 pm EDT S 4.6 10.00 A Few Clouds -- 30.0 18.0 61% 25 NA 30.40 1029.7
10:51 pm EDT N 0.0 10.00 Mostly Cloudy -- 30.0 18.0 61% NA NA 30.40 1029.8
9:51 pm EDT N 0.0 10.00 A Few Clouds -- 31.0 17.1 56% NA NA 30.40 1029.7
8:51 pm EDT W 4.6 10.00 A Few Clouds -- 33.0 16.0 49% 29 NA 30.40 1029.7
7:51 pm EDT NW 5.8 10.00 A Few Clouds -- 36.0 15.1 42% 31 NA 30.39 1029.3
6:51 pm EDT NW 11.5 10.00 A Few Clouds -- 40.0 15.1 36% 33 NA 30.38 1029.1
5:51 pm EDT W 12.7 10.00 A Few Clouds -- 41.0 14.0 33% 34 NA 30.37 1028.9
4:51 pm EDT NW 16.1 G 23.0 10.00 Partly Cloudy -- 41.0 16.0 36% 33 NA 30.38 1029.0
3:51 pm EDT W 17.3 10.00 Partly Cloudy -- 43.0 16.0 34% 35 NA 30.37 1028.8
2:51 pm EDT W 13.8 G 23.0 10.00 Partly Cloudy -- 44.0 16.0 32% 37 NA 30.38 1028.9
1:51 pm EDT NW 12.7 G 24.2 10.00 Mostly Cloudy -- 41.0 17.1 38% 34 NA 30.40 1029.8
12:51 pm EDT W 16.1 G 24.2 10.00 Mostly Cloudy -- 39.0 16.0 39% 30 NA 30.42 1030.4
11:51 am EDT NW 13.8 10.00 Mostly Cloudy -- 38.0 15.1 39% 30 NA 30.42 1030.3
10:51 am EDT NW 10.4 10.00 A Few Clouds -- 38.0 12.9 36% 31 NA 30.42 1030.4
9:51 am EDT 6.9 10.00 A Few Clouds -- 35.0 17.1 48% 29 NA 30.41 1030.1

Regional Weather Observation


Albany International Airport, NY (KALB)

A Few Clouds
37.0 F

Bennington Morse State Airport, VT (KDDH)

Overcast
29.0 F

Glens Falls, Floyd Bennett Memorial Airport, NY (KGFL)

Mostly Cloudy
25.0 F

North Adams Harriman-and-West Airport, MA (KAQW)

Fair
31.0 F

Pittsfield Municipal Airport, MA (KPSF)

Partly Cloudy
30.0 F

Middlebury State Airport, VT (K6B0)

Fair
32.0 F

Advertise Here


Advertise Here